Temperature
7 7 7 6 6 6 7 7 6 7 7 7 7 7 7 7 7 7 7 7 7 7 7 7 7 7 6 6 6 6 6 5 5 5 5 6 5 5 5 5 5 5 5
7 6 6 6 6 6 6 6 6 6 7 7 7 7 7 7 7 7 7 7 7 7 6 6 6 6 6 6 6 6 5 5 5 5 5 5 5 5 5 5 5 5 5
6 6 6 6 6 6 6 6 6 6 6 6 6 6 6 6 6 6 6 6 6 6 6 6 6 6 6 5 5 5 5 5 4 4 4 4 4 4 4 4 4 4 4
6 6 6 6 6 6 6 6 6 6 6 6 6 6 6 6 6 6 6 6 6 6 6 6 5 5 5 5 5 5 4 4 4 4 4 4 3 3 3 3 3 4 4
6 6 6 6 6 6 5 6 5 5 6 5 5 5 5 5 5 5 5 5 5 5 5 5 5 5 5 5 4 4 4 3 3 3 3 3 3 3 2 2 2 3 3
6 6 6 6 5 5 5 5 5 5 5 5 5 5 5 5 5 5 5 5 4 4 4 4 4 4 4 4 4 3 3 3 3 3 3 2 2 2 2 2 1 1 2
6 6 6 6 5 5 5 5 5 5 5 5 5 5 4 4 4 4 4 4 4 4 4 4 4 4 3 3 3 3 3 3 2 2 2 2 1 1 1 1 1 0 1
6 6 6 6 5 5 5 5 5 5 5 4 4 4 4 4 4 4 4 4 4 3 3 3 3 3 3 3 3 2 2 2 2 2 1 1 1 1 1 0 0 0 0
6 6 6 6 5 5 5 5 5 4 4 4 4 4 3 3 3 3 3 3 3 3 3 3 3 3 3 2 2 2 2 2 2 1 1 1 1 1 0 -0 -0 -1 -0
6 6 5 5 5 5 5 5 4 4 4 3 3 3 3 3 3 3 3 3 3 3 3 2 2 2 2 2 1 1 1 1 1 1 1 1 1 0 0 -0 -1 -1 -1
6 5 5 5 5 5 4 4 4 4 3 3 3 3 3 3 3 3 3 2 2 2 2 2 2 2 1 1 1 1 1 0 0 0 0 0 0 -0 -0 -1 -1 -1 -2
5 5 5 5 5 4 4 4 4 3 3 3 2 2 2 2 2 2 2 2 2 2 2 2 1 1 1 1 1 0 0 -0 -0 -0 -0 -0 -0 -0 -1 -1 -1 -1 -1
5 5 4 4 4 4 4 3 3 3 3 3 2 2 2 2 2 2 2 1 1 1 1 1 1 1 1 0 0 -0 -0 -1 -1 -1 -1 -1 -1 -1 -1 -1 -1 -1 -1
4 4 4 4 4 4 3 3 3 3 3 2 2 2 2 2 1 1 1 1 1 1 1 1 0 0 -0 -0 -1 -1 -1 -1 -1 -1 -1 -2 -2 -2 -2 -2 -2 -2 -2
4 4 4 4 4 3 3 3 3 3 3 2 2 2 2 1 1 1 1 1 1 0 0 0 -0 -0 -0 -1 -1 -1 -1 -1 -2 -2 -2 -2 -2 -3 -3 -3 -3 -3 -3
4 4 3 3 3 3 3 3 3 2 2 2 2 2 1 1 1 1 1 0 0 0 -0 -0 -0 -1 -1 -1 -1 -1 -2 -2 -2 -2 -2 -3 -3 -3 -3 -3 -3 -3 -3
3 3 3 3 3 3 3 2 2 2 2 2 1 1 1 1 1 1 0 -0 -0 -0 -1 -1 -1 -1 -1 -2 -2 -2 -2 -2 -2 -3 -3 -3 -3 -4 -4 -4 -4 -4 -4
3 3 3 3 3 3 2 2 2 2 2 1 1 1 1 0 0 0 -0 -1 -1 -1 -1 -1 -1 -1 -2 -2 -2 -2 -2 -2 -3 -3 -3 -4 -4 -4 -4 -4 -4 -4 -4
3 3 3 3 2 2 2 2 2 1 1 1 1 1 0 -0 -0 -1 -1 -1 -1 -1 -1 -1 -1 -2 -2 -2 -2 -3 -3 -3 -3 -4 -4 -4 -4 -4 -5 -4 -4 -4 -5
2 2 2 2 2 2 2 1 1 1 1 1 1 0 0 -0 -1 -1 -1 -1 -2 -2 -2 -2 -2 -2 -2 -3 -3 -3 -3 -4 -4 -4 -4 -4 -5 -5 -5 -5 -5 -5 -5
2 2 2 2 2 2 1 1 1 1 1 0 0 0 -0 -0 -1 -1 -1 -1 -2 -2 -2 -2 -2 -2 -3 -3 -3 -4 -4 -4 -4 -4 -5 -5 -5 -5 -5 -5 -5 -5 -5
2 2 2 1 1 1 1 1 1 0 0 0 -0 -1 -1 -1 -1 -1 -1 -1 -2 -2 -2 -2 -2 -3 -3 -3 -4 -4 -4 -4 -5 -5 -5 -5 -5 -5 -5 -6 -5 -5 -5
1 1 1 1 1 1 1 0 0 0 -0 -0 -1 -1 -1 -1 -1 -1 -1 -2 -2 -2 -3 -3 -3 -3 -3 -4 -4 -4 -4 -5 -5 -5 -5 -5 -6 -6 -6 -6 -6 -6 -6
1 1 1 1 1 0 0 0 -0 -0 -1 -1 -1 -1 -1 -1 -2 -2 -2 -2 -2 -3 -3 -3 -3 -3 -3 -4 -4 -4 -4 -5 -5 -5 -5 -6 -6 -6 -6 -6 -6 -6 -6
1 1 0 0 0 0 -0 -0 -1 -1 -1 -1 -1 -2 -2 -2 -2 -2 -2 -3 -3 -3 -3 -3 -3 -3 -4 -4 -4 -4 -5 -5 -5 -5 -6 -6 -6 -6 -6 -6 -7 -7 -7
0 0 -0 -0 -0 -0 -0 -1 -1 -1 -1 -2 -2 -2 -2 -2 -2 -2 -3 -3 -3 -3 -3 -3 -3 -4 -4 -4 -4 -5 -5 -5 -5 -6 -6 -6 -6 -6 -7 -7 -7 -7 -7
Wind_Speed
6 6 6 6 6 6 6 6 6 5 5 5 5 5 5 4 4 4 4 4 4 4 3 4 3 3 2 2 2 3 3 4 6 6 5 6 7 8 7 9 10 10 10
6 6 6 6 6 6 6 6 5 5 4 4 4 4 4 4 5 5 4 4 4 4 4 3 3 2 3 2 2 3 3 4 5 7 6 6 7 7 8 9 8 9 10
6 6 6 6 6 6 6 5 5 5 4 4 4 4 4 4 4 4 5 4 4 4 4 4 4 4 3 3 3 3 3 3 4 6 6 5 6 6 8 8 9 8 9
6 6 7 6 6 5 5 5 5 4 4 4 4 4 4 4 4 4 4 4 3 3 4 4 4 4 4 3 3 3 3 4 4 5 5 5 6 6 6 7 8 8 8
7 7 7 6 5 5 5 5 5 4 4 4 4 3 3 3 3 4 4 4 4 3 3 3 3 3 3 3 3 3 3 4 4 4 5 5 5 5 6 6 8 9 9
8 8 7 7 6 6 6 5 5 4 4 4 5 4 4 3 4 5 4 4 4 4 3 3 2 3 3 3 3 4 4 4 4 4 4 5 6 6 7 7 7 8 7
8 7 7 7 7 7 6 5 5 5 5 5 5 5 5 5 6 6 5 4 4 4 4 3 3 3 3 3 3 3 4 4 5 5 6 6 7 7 7 8 8 8 9
8 8 7 7 7 7 7 6 6 5 5 5 5 5 5 5 6 6 6 5 4 4 3 3 3 3 3 3 3 3 4 4 4 5 5 6 6 7 7 8 9 10 10
9 9 8 8 8 8 8 7 6 6 6 6 5 5 5 5 6 7 6 4 4 4 3 3 3 3 3 3 3 3 4 4 3 4 5 6 7 7 7 6 7 7 8
10 9 8 8 8 8 8 7 6 6 6 5 5 5 5 5 6 7 6 4 4 3 3 3 4 4 4 4 4 4 4 4 4 4 4 5 5 6 6 6 6 6 6
8 8 8 8 8 8 7 6 6 6 6 5 5 5 5 5 5 7 7 5 4 4 3 3 3 4 5 4 4 4 4 4 4 4 4 4 4 4 5 5 5 6 6
7 8 8 8 7 6 7 6 6 6 6 6 5 5 4 5 6 6 8 7 6 5 4 3 3 4 4 4 4 3 3 3 3 3 3 4 4 5 5 6 7 7 7
8 8 8 8 7 7 8 8 7 7 6 6 6 5 5 4 5 7 8 8 7 5 4 4 4 4 4 4 3 3 3 2 2 3 4 4 5 5 5 6 6 7 8
9 8 8 8 8 8 7 7 7 7 7 7 7 6 5 5 5 5 5 5 6 5 4 4 5 5 3 3 3 2 2 2 3 3 4 4 4 4 5 5 5 6 6
9 8 8 8 8 8 8 7 8 8 8 8 7 7 6 6 6 7 6 5 5 4 4 3 3 3 3 2 2 2 2 2 2 3 3 4 4 4 5 5 5 5 5
8 8 7 7 7 7 7 6 7 7 8 9 7 7 6 6 7 9 9 7 7 7 5 4 4 4 4 4 3 3 2 2 3 3 3 3 4 4 5 5 4 5 6
9 8 7 7 7 8 7 7 6 6 8 10 11 11 9 9 9 9 9 8 8 8 5 5 5 5 4 4 4 3 3 3 2 3 3 3 4 4 5 5 5 5 5
9 9 8 7 7 8 8 8 7 7 7 6 9 12 12 11 10 10 9 8 7 7 5 5 5 5 4 4 4 3 3 3 3 3 3 3 3 4 4 5 5 5 6
8 7 7 7 7 7 7 7 7 8 7 6 6 7 11 11 10 10 10 7 7 6 6 5 5 5 5 4 4 4 3 3 3 3 3 3 4 4 5 5 5 6 5
8 9 8 7 7 7 8 8 8 8 8 7 7 7 8 8 7 8 8 7 7 6 6 6 5 5 5 4 4 4 4 3 3 3 3 3 3 4 5 5 5 5 5
6 7 9 7 7 8 8 8 8 8 8 8 7 8 11 8 8 8 8 7 7 7 6 6 5 5 5 4 4 4 5 4 4 3 3 3 3 4 4 4 5 5 5
6 6 7 7 7 8 8 8 8 8 8 8 6 7 12 8 7 7 7 7 7 6 6 6 5 5 5 5 5 5 5 4 4 4 4 3 3 4 4 4 4 4 4
6 7 7 7 7 8 8 7 7 7 7 7 7 7 8 8 8 7 7 7 6 6 6 6 6 5 5 5 6 5 5 5 4 4 4 4 3 3 4 4 4 5 4
7 7 7 7 7 7 8 7 7 7 8 7 7 7 8 8 8 8 7 6 6 6 6 6 6 7 7 6 6 6 6 6 5 5 5 4 4 3 3 4 4 5 4
7 7 7 7 7 7 7 7 7 8 7 7 7 7 7 7 7 7 7 6 7 6 7 6 5 6 7 7 6 6 7 7 6 5 5 4 4 4 4 4 4 4 4
7 7 7 7 7 7 7 8 8 8 8 7 7 7 7 7 7 7 6 6 6 6 6 6 6 7 7 7 8 8 8 8 7 6 5 4 4 4 3 3 4 4 4
Wind_Direction
243 243 243 245 246 246 245 244 240 238 234 232 228 228 224 220 216 211 210 204 204 205 205 210 217 222 222 227 234 240 245 248 260 276 281 286 288 289 293 291 289 289 287
244 245 246 244 242 243 243 241 236 233 229 226 223 223 222 221 219 214 208 206 206 204 205 208 216 215 221 228 231 239 249 255 260 271 281 284 287 293 294 293 293 294 291
242 243 244 239 237 242 241 236 230 227 224 220 219 218 219 219 219 217 212 209 209 207 204 206 211 209 219 228 236 246 255 263 262 264 276 283 288 293 297 295 294 294 294
236 237 238 234 232 233 235 229 224 222 220 220 220 223 223 222 218 215 209 205 206 208 206 207 212 213 218 224 237 248 257 262 261 262 272 282 287 295 298 298 300 302 300
231 232 232 229 227 225 225 223 217 215 218 218 217 218 217 216 212 204 200 201 199 200 198 204 209 209 217 225 232 241 247 253 260 264 271 280 284 294 295 299 298 303 298
231 231 229 222 219 220 219 218 215 211 209 209 212 209 208 211 195 198 200 198 197 195 195 200 198 193 199 216 235 251 259 257 262 268 274 275 284 289 294 295 299 301 297
232 230 226 221 218 218 215 213 216 213 208 209 213 210 210 205 197 200 195 193 192 194 197 200 201 200 203 218 231 248 264 269 269 270 271 276 284 289 292 293 293 293 289
229 227 221 217 217 215 212 213 215 213 210 210 211 212 213 204 192 190 187 196 199 201 204 208 213 215 212 228 250 263 272 275 276 271 271 282 288 292 289 288 291 291 287
230 225 219 214 214 211 211 212 210 207 207 206 205 207 209 206 190 188 189 195 200 205 206 212 218 228 211 220 244 261 274 282 281 278 285 288 295 298 298 292 294 297 295
230 227 220 213 212 213 212 209 206 205 207 202 204 207 210 213 192 192 196 201 203 206 206 210 214 226 226 224 239 250 263 277 286 290 287 287 289 292 292 283 285 287 293
231 224 219 214 214 213 208 204 200 199 200 203 207 208 211 210 202 200 204 204 203 206 210 214 214 212 232 237 246 252 262 282 286 289 292 298 303 303 301 294 286 278 278
225 222 218 214 210 205 201 198 197 196 199 204 205 209 211 208 210 206 207 211 208 210 215 219 219 212 230 239 247 250 266 280 280 287 291 295 299 301 301 299 292 284 275
221 221 220 213 209 204 201 196 195 197 201 206 206 209 208 204 202 204 208 207 207 215 217 211 215 218 233 243 235 236 251 261 268 275 282 288 294 297 301 301 297 292 285
223 222 216 212 209 204 203 199 199 200 203 206 208 210 208 203 201 197 199 200 198 207 209 195 198 211 222 225 222 231 252 262 268 271 280 289 296 299 301 304 305 308 303
223 221 215 211 208 205 206 206 206 210 210 206 207 205 202 208 203 193 193 196 194 192 183 192 201 206 211 219 233 245 256 266 274 278 280 286 293 299 303 306 304 305 301
219 218 214 209 205 205 204 209 211 215 211 214 214 206 207 204 185 190 198 198 192 182 184 200 207 214 220 225 233 241 248 259 271 278 279 284 290 295 299 302 300 298 300
220 217 214 209 205 204 203 203 204 207 211 214 212 210 209 198 194 196 198 198 197 191 203 210 214 218 222 226 231 236 248 256 263 268 275 282 289 293 296 299 301 300 300
223 218 213 212 207 205 205 204 202 199 199 206 210 210 206 202 198 197 195 193 203 205 214 215 218 219 219 223 228 236 246 252 256 265 271 277 284 290 293 296 298 301 301
221 218 213 211 208 206 205 204 203 204 205 201 193 197 200 199 198 198 192 204 209 212 214 216 218 218 219 221 225 229 234 242 251 258 265 273 281 285 290 295 296 297 298
223 216 209 209 206 204 203 203 204 203 203 202 201 195 183 185 195 197 201 208 212 214 214 215 215 214 214 217 219 223 231 239 246 251 259 268 275 279 284 290 294 295 294
219 213 204 208 209 205 204 205 204 202 204 207 207 197 188 192 198 200 202 206 212 214 212 211 211 211 211 213 217 222 228 237 241 246 255 265 272 278 283 288 294 292 293
214 210 206 211 211 208 206 205 204 205 206 207 205 196 196 199 202 204 206 208 211 212 209 207 209 210 208 209 212 218 225 232 238 243 251 259 266 273 279 285 294 299 298
211 209 208 210 210 207 206 205 203 205 206 206 201 195 197 203 205 207 209 209 207 207 204 204 207 209 209 209 211 214 221 229 234 236 243 252 260 269 274 281 290 294 297
209 209 209 208 207 205 205 205 204 204 205 205 203 201 202 204 207 208 208 205 204 204 202 202 206 209 206 208 210 213 218 221 222 226 238 248 259 268 271 276 281 288 294
207 208 208 207 207 207 206 206 205 204 203 204 204 204 205 205 206 206 205 202 200 203 202 202 205 207 208 210 212 214 217 221 225 226 228 241 251 258 264 271 276 284 292
210 209 209 208 207 207 206 206 206 205 204 203 203 204 204 204 205 203 201 199 200 201 201 203 205 206 208 210 212 213 216 221 224 230 226 234 245 253 258 265 275 279 285
Height
1461 1461 1460 1459 1459 1458 1458 1458 1458 1458 1458 1458 1458 1459 1459 1460 1460 1461 1462 1462 1463 1464 1465 1465 1466 1467 1467 1468 1468 1468 1468 1468 1467 1465 1465 1464 1462 1461 1459 1457 1455 1453 1450
1457 1457 1456 1456 1455 1455 1454 1454 1454 1454 1454 1454 1455 1455 1456 1456 1457 1458 1458 1459 1460 1460 1461 1462 1462 1463 1463 1464 1464 1464 1464 1463 1463 1461 1459 1459 1457 1456 1454 1452 1450 1447 1445
1454 1453 1453 1452 1451 1451 1451 1451 1451 1451 1451 1451 1452 1452 1452 1453 1454 1454 1455 1455 1456 1457 1457 1458 1458 1459 1459 1460 1460 1460 1459 1459 1459 1457 1455 1454 1453 1451 1449 1447 1444 1442 1439
1449 1449 1449 1448 1448 1448 1448 1448 1447 1448 1448 1448 1448 1448 1449 1449 1450 1451 1451 1452 1452 1453 1453 1454 1455 1455 1456 1456 1456 1456 1455 1455 1454 1453 1451 1449 1448 1446 1445 1442 1438 1436 1434
1445 1445 1445 1445 1445 1444 1444 1444 1444 1444 1444 1445 1445 1445 1446 1446 1447 1447 1448 1448 1449 1449 1450 1450 1451 1452 1452 1452 1452 1452 1451 1451 1450 1448 1447 1445 1443 1442 1440 1437 1434 1431 1428
1441 1441 1441 1441 1441 1441 1441 1441 1441 1441 1441 1441 1441 1442 1442 1442 1443 1444 1444 1444 1445 1446 1446 1447 1447 1448 1448 1448 1448 1448 1448 1447 1445 1444 1442 1441 1439 1438 1436 1434 1431 1428 1424
1436 1436 1436 1436 1437 1437 1437 1437 1437 1437 1437 1437 1438 1438 1438 1439 1439 1440 1440 1441 1442 1442 1443 1443 1444 1444 1444 1444 1444 1444 1444 1443 1442 1441 1439 1437 1435 1434 1432 1430 1427 1425 1421
1432 1432 1432 1432 1432 1432 1433 1433 1433 1433 1433 1434 1434 1434 1435 1435 1436 1436 1437 1438 1438 1439 1440 1440 1440 1440 1441 1441 1440 1440 1439 1438 1438 1436 1435 1433 1432 1431 1429 1427 1424 1420 1417
1427 1427 1427 1427 1427 1428 1428 1428 1429 1429 1429 1430 1430 1430 1431 1431 1432 1433 1433 1434 1435 1435 1436 1436 1437 1437 1437 1437 1436 1435 1435 1434 1433 1432 1431 1429 1428 1426 1425 1423 1420 1417 1412
1422 1422 1422 1422 1423 1423 1423 1424 1424 1425 1425 1425 1426 1426 1427 1427 1428 1429 1430 1430 1431 1431 1432 1433 1433 1433 1433 1433 1432 1431 1430 1430 1429 1428 1427 1425 1424 1422 1420 1418 1416 1413 1409
1417 1417 1417 1417 1418 1418 1419 1419 1420 1421 1421 1421 1422 1422 1423 1424 1424 1425 1426 1427 1427 1427 1428 1429 1429 1429 1429 1429 1429 1428 1427 1426 1425 1424 1422 1421 1419 1418 1416 1414 1412 1410 1406
1411 1411 1412 1412 1412 1413 1414 1415 1415 1416 1416 1417 1418 1418 1419 1419 1420 1421 1422 1423 1423 1424 1424 1425 1425 1426 1426 1425 1425 1424 1424 1423 1421 1420 1418 1417 1415 1413 1412 1410 1407 1405 1402
1405 1405 1406 1406 1407 1407 1408 1409 1410 1411 1412 1412 1413 1414 1414 1415 1416 1417 1418 1419 1419 1420 1421 1421 1421 1422 1421 1421 1421 1420 1420 1419 1417 1416 1414 1413 1412 1410 1407 1405 1403 1401 1398
1399 1400 1400 1401 1401 1402 1403 1404 1405 1406 1407 1408 1409 1409 1410 1411 1412 1413 1414 1415 1415 1416 1417 1417 1417 1418 1417 1417 1417 1417 1416 1415 1414 1413 1411 1409 1408 1406 1404 1402 1399 1396 1393
1393 1394 1394 1395 1396 1396 1398 1399 1400 1401 1403 1404 1405 1406 1406 1407 1408 1409 1410 1410 1411 1412 1413 1413 1413 1414 1414 1414 1413 1413 1412 1412 1410 1409 1407 1406 1404 1402 1400 1398 1396 1393 1390
1387 1388 1388 1389 1390 1391 1392 1393 1395 1397 1398 1399 1400 1401 1402 1404 1404 1405 1406 1407 1408 1409 1409 1409 1409 1410 1410 1410 1409 1409 1408 1408 1407 1405 1404 1402 1400 1398 1396 1395 1392 1390 1387
1381 1381 1382 1383 1384 1385 1386 1388 1389 1391 1392 1394 1395 1396 1398 1399 1400 1401 1402 1403 1404 1405 1405 1405 1405 1406 1406 1406 1405 1405 1404 1404 1403 1401 1400 1398 1397 1395 1393 1391 1389 1386 1384
1375 1375 1376 1377 1378 1379 1381 1382 1384 1385 1386 1388 1390 1391 1393 1395 1396 1397 1398 1399 1399 1400 1400 1401 1401 1401 1401 1401 1401 1401 1400 1400 1399 1398 1396 1395 1393 1392 1389 1387 1385 1383 1381
1369 1369 1370 1371 1372 1374 1375 1377 1378 1380 1381 1383 1384 1386 1388 1389 1391 1392 1393 1394 1394 1395 1395 1396 1397 1397 1397 1397 1397 1397 1396 1396 1395 1394 1393 1391 1390 1388 1386 1384 1382 1380 1378
1363 1363 1364 1365 1366 1368 1369 1371 1372 1374 1375 1377 1379 1380 1382 1384 1385 1386 1387 1388 1389 1390 1391 1391 1392 1393 1393 1393 1393 1393 1392 1392 1391 1390 1389 1388 1386 1385 1383 1381 1379 1377 1375
1356 1357 1358 1359 1360 1362 1363 1365 1366 1368 1370 1371 1373 1375 1376 1378 1379 1380 1382 1383 1384 1385 1386 1387 1387 1388 1388 1388 1389 1388 1388 1388 1387 1386 1385 1384 1383 1381 1380 1378 1376 1375 1373
1350 1351 1352 1353 1354 1356 1357 1359 1360 1362 1364 1366 1367 1369 1371 1372 1373 1375 1376 1378 1379 1380 1381 1382 1382 1383 1383 1384 1384 1384 1384 1384 1383 1383 1382 1380 1379 1378 1377 1375 1373 1372 1370
1344 1345 1346 1347 1348 1350 1351 1353 1354 1356 1358 1360 1361 1363 1365 1366 1367 1369 1371 1372 1374 1375 1376 1377 1377 1378 1379 1379 1380 1380 1380 1380 1380 1379 1378 1377 1376 1375 1373 1372 1371 1369 1368
1338 1339 1340 1341 1342 1344 1345 1347 1348 1350 1352 1354 1355 1357 1359 1360 1362 1364 1365 1367 1368 1369 1370 1371 1372 1373 1374 1375 1375 1375 1376 1376 1376 1375 1374 1373 1372 1371 1370 1369 1368 1367 1365
1332 1333 1334 1335 1337 1338 1340 1341 1343 1344 1346 1348 1350 1351 1353 1355 1356 1358 1360 1361 1363 1364 1365 1366 1367 1368 1369 1370 1371 1371 1371 1372 1372 1371 1371 1370 1369 1368 1367 1366 1365 1364 1363
1326 1327 1328 1330 1331 1333 1334 1335 1337 1339 1340 1342 1344 1346 1347 1349 1351 1352 1354 1356 1357 1358 1360 1361 1362 1364 1365 1365 1366 1367 1367 1367 1367 1367 1367 1366 1366 1365 1364 1364 1363 1362 1361